Location: Potomac
(46.8816°N, 113.5795°W)
Time: 23:53:24
(UTC+00:00)

M-CUBED/EXP-1 PRIME - Visible Passes

Search period start: 28 June 2022 00:00
Search period end: 08 July 2022 00:00
Orbit: 423 x 634 km, 101.7° (Epoch: 28 June)

Date Brightness Start Highest point End Pass type
(mag) Time Alt. Az. Time Alt. Az. Time Alt. Az.
28 Jun ? 08:40:31 65° SSW 08:40:52 74° WSW 08:44:10 10° NNW visible
29 Jun ? 08:29:17 55° SE 08:29:51 73° ENE 08:33:10 10° NNW visible
30 Jun ? 08:18:01 37° ESE 08:18:50 48° ENE 08:22:05 10° N visible
30 Jun ? 09:53:17 11° W 09:53:17 11° W 09:53:54 10° W visible
01 Jul ? 08:06:46 26° ESE 08:07:52 33° ENE 08:10:56 10° N visible
01 Jul ? 09:42:01 15° W 09:42:01 15° W 09:43:59 10° WNW visible
02 Jul ? 07:55:30 18° E 07:56:54 24° ENE 07:59:41 10° N visible
02 Jul ? 09:30:45 22° W 09:30:46 22° W 09:33:27 10° NW visible
03 Jul ? 07:44:13 13° E 07:45:57 18° ENE 07:48:20 10° NNE visible
03 Jul ? 09:19:28 31° WSW 09:19:38 31° WSW 09:22:42 10° NW visible
04 Jul ? 07:33:18 10° E 07:35:02 14° NE 07:36:47 10° NNE visible
04 Jul ? 09:08:11 45° SW 09:08:30 47° WSW 09:11:49 10° NNW visible
05 Jul ? 07:23:38 10° ENE 07:24:07 10° NE 07:24:36 10° NE visible
05 Jul ? 08:56:53 58° SSW 08:57:24 72° WSW 09:00:51 10° NNW visible
06 Jul ? 08:45:34 51° SE 08:46:19 76° ENE 08:49:48 10° NNW visible
07 Jul ? 08:34:16 36° ESE 08:35:15 51° ENE 08:38:40 10° N visible
07 Jul ? 10:09:30 11° W 10:09:31 11° W 10:10:33 10° WNW visible
